Flag for France Weather past 2 weeks in Dijon, France

39 °F

Light rain. Mostly cloudy.

Feels Like: 37 °F
Forecast: 36 / 42 °F
Wind: 3 mph from South

Location: Dijon Airport

Current Time: Nov 25, 2015 at 11:19:15 AM

Latest Report: Nov 25, 2015 at 10:30 AM

Visibility: 4 mi

Pressure: 29.86 "Hg

Humidity: 93%

Dew point: 37 °F

Location of DijonLocation

Historic Weather in Dijon — Graph


Dijon temperature yesterday

Maximum temperature yesterday: 36 °F (at 1:30 PM)
Minimum temperature yesterday: 21 °F (at 8:00 AM)
Average temperature yesterday: 30 °F

Past Weeks' High & Low Weather Summary

High61 °F (Nov 18, 12:30 PM)100% (Nov 10, 1:00 PM)30.54 "Hg (Nov 10, 1:00 PM)
Low21 °F (Nov 24, 8:00 AM)55% (Nov 15, 2:00 PM)29.53 "Hg (Nov 21, 9:30 AM)
Average45 °F85%30.16 "Hg
* Reported Nov 10 10:30 AM — Nov 25 10:00 AM, Dijon, Weather by CustomWeather, © 2015

Note: Actual official high and low records may vary slightly from our data, if they occured in-between our weather recording intervals... More about our weather records


Dijon weather history for previous 24 hours

Time TempWeatherWind HumidityBarometerVisibility
10:00 AM
Wed, Nov 25
39 °FLight rain. Partly sunny.7 mph93%29.86 "Hg4 mi
9:30 AM37 °FLight rain. Fog.12 mph100%29.86 "Hg2 mi
9:00 AM37 °FLight rain. Fog.9 mph100%29.89 "Hg2 mi
8:30 AM37 °FLight rain. Fog.9 mph93%29.89 "Hg2 mi
8:00 AM37 °FLight rain. Fog.9 mph93%29.89 "Hg2 mi
7:30 AM37 °FFog.10 mph93%29.89 "Hg3 mi
7:00 AM37 °FDrizzle. Fog.10 mph93%29.89 "Hg2 mi
6:30 AM37 °FFog.7 mph93%29.89 "Hg2 mi
6:00 AM37 °FLight rain. Fog.10 mph93%29.89 "Hg3 mi
5:30 AM37 °FDrizzle. Fog.9 mph93%29.89 "Hg3 mi
5:00 AM37 °FFog.9 mph93%29.92 "Hg3 mi
4:30 AM36 °FFog.10 mph100%29.92 "Hg3 mi
4:00 AM36 °FLight rain. Fog.9 mph100%29.92 "Hg2 mi
3:30 AM36 °FDrizzle. Fog.12 mph93%29.92 "Hg2 mi
3:00 AM36 °FFog.12 mph93%29.92 "Hg2 mi
2:30 AM36 °FDrizzle. Fog.12 mph93%29.95 "Hg3 mi
2:00 AM36 °FLight rain. Fog.14 mph93%29.95 "Hg2 mi
1:00 AM34 °FFog.13 mph93%29.98 "Hg3 mi
12:30 AM34 °FFog.9 mph93%29.98 "Hg3 mi
11:30 PM
Tue, Nov 24
34 °FLight rain. Fog.9 mph93%30.01 "Hg3 mi
11:00 PM34 °FLight snow. Fog.9 mph93%30.04 "Hg3 mi
10:30 PM34 °FLight snow. Fog.9 mph93%30.04 "Hg2 mi
10:00 PM34 °FLight snow. Fog.9 mph93%30.04 "Hg3 mi
9:30 PM34 °FLight rain. Low clouds.9 mph93%30.07 "Hg4 mi
9:00 PM34 °FLight rain. Mostly cloudy.7 mph93%30.07 "Hg4 mi
8:30 PM34 °FLight rain. Mostly cloudy.10 mph93%30.07 "Hg4 mi
8:00 PM34 °FMostly cloudy.12 mph93%30.07 "Hg4 mi
7:30 PM34 °FLight snow. Fog.8 mph93%30.09 "Hg3 mi
7:00 PM34 °FLight rain. Partly cloudy.10 mph87%30.09 "Hg4 mi
6:30 PM34 °FLight snow. Passing clouds.10 mph87%30.12 "Hg4 mi
6:00 PM34 °FMostly cloudy.10 mph87%30.12 "Hg5 mi
5:30 PM34 °FMostly cloudy.12 mph87%30.12 "Hg6 mi
5:00 PM34 °FOvercast.10 mph87%30.15 "HgN/A
4:30 PM34 °FBroken clouds.14 mph87%30.15 "HgN/A
4:00 PM36 °FSunny.10 mph81%30.15 "Hg10 mi
3:30 PM36 °FSunny.13 mph81%30.15 "Hg10 mi
3:00 PM36 °FOvercast.13 mph81%30.18 "HgN/A
2:30 PM36 °FOvercast.12 mph81%30.18 "HgN/A
2:00 PM36 °FMore clouds than sun.12 mph81%30.21 "HgN/A
1:30 PM36 °FBroken clouds.12 mph87%30.21 "HgN/A
1:00 PM34 °FMostly cloudy.9 mph93%30.21 "HgN/A
12:30 PM34 °FMostly cloudy.7 mph93%30.24 "HgN/A
12:00 PM32 °FPartly sunny.7 mph100%30.24 "Hg6 mi
11:30 AM30 °FLow clouds.5 mph100%30.27 "Hg5 mi
11:00 AM30 °FLow clouds.3 mph93%30.27 "Hg4 mi
Weather by CustomWeather, © 2015

See weather overviewHow to use our weather pages